Home > Time Zones > World Clock > Weather > Italy > Genoa > Past weeks

Flag for Italy Weather past 2 weeks in Genoa, Italy

Now
66 °F

Passing clouds.


Feels Like: 66 °F
Forecast: 53 / 64 °F
Wind: 3 mph from Northeast

Location: Genova / Sestri

Current Time: Oct 22, 2014 at 2:14:54 AM

Latest Report: Oct 22, 2014 at 1:20 AM


Visibility: N/A

Pressure: 29.65 "Hg

Humidity: 88%

Dew point: 63 °F

Location of GenoaLocation

Historic Weather in Genoa — Graph

°F

Genoa temperature yesterday

Maximum temperature yesterday: 73 °F (at 11:20 AM)
Minimum temperature yesterday: 66 °F (at 11:50 PM)
Average temperature yesterday: 71 °F

Past Weeks' High & Low Weather Summary

 TemperatureHumidityPressure
High75 °F (Oct 8, 2:50 PM)100% (Oct 7, 9:50 AM)30.27 "Hg (Oct 7, 9:50 AM)
Low61 °F (Oct 7, 9:50 AM)65% (Oct 15, 11:50 AM)29.65 "Hg (Oct 21, 11:50 PM)
Average69 °F84%29.99 "Hg
* Reported Oct 7 12:20 AM — Oct 22 12:50 AM, Genoa, Weather by CustomWeather, © 2014

Note: Actual official high and low records may vary slightly from our data, if they occured in-between our weather recording intervals... More about our weather records

Advertising

Genoa weather history for previous 24 hours

 ConditionsComfort  
Time TempWeatherWind HumidityBarometerVisibility
12:50 AM
Oct 22
66 °FPassing clouds.3 mph88%29.65 "HgN/A
12:20 AM66 °FPassing clouds.5 mph88%29.65 "HgN/A
11:50 PM
Oct 21
66 °FPassing clouds.6 mph88%29.65 "HgN/A
10:50 PM68 °FPassing clouds.5 mph88%29.68 "HgN/A
10:20 PM70 °FPassing clouds.3 mph83%29.71 "HgN/A
9:50 PM70 °FPassing clouds.2 mph83%29.71 "HgN/A
9:20 PM70 °FPassing clouds.2 mph83%29.74 "HgN/A
8:50 PM70 °FPassing clouds.7 mph83%29.74 "HgN/A
8:20 PM72 °FPassing clouds.12 mph83%29.77 "HgN/A
7:20 PM72 °FScattered clouds.8 mph83%29.77 "HgN/A
6:50 PM72 °FScattered clouds.13 mph83%29.77 "HgN/A
6:20 PM72 °FScattered clouds.13 mph83%29.77 "HgN/A
5:50 PM72 °FPassing clouds.13 mph83%29.77 "HgN/A
5:20 PM72 °FSunny.10 mph88%29.80 "Hg10 mi
4:50 PM73 °FPassing clouds.8 mph83%29.83 "HgN/A
4:20 PM73 °FPassing clouds.8 mph83%29.83 "HgN/A
3:50 PM73 °FPassing clouds.9 mph83%29.83 "HgN/A
3:20 PM72 °FPassing clouds.12 mph88%29.83 "HgN/A
2:50 PM73 °FPassing clouds.12 mph83%29.83 "HgN/A
2:20 PM73 °FScattered clouds.7 mph83%29.86 "HgN/A
1:50 PM72 °FScattered clouds.8 mph83%29.89 "HgN/A
1:20 PM72 °FScattered clouds.8 mph83%29.89 "HgN/A
12:50 PM72 °FPartly sunny.13 mph83%29.92 "HgN/A
12:20 PM72 °FPartly sunny.9 mph83%29.92 "HgN/A
11:50 AM73 °FScattered clouds.7 mph83%29.92 "HgN/A
11:20 AM73 °FBroken clouds.12 mph83%29.92 "HgN/A
10:50 AM72 °FPartly sunny.13 mph83%29.92 "HgN/A
10:20 AM72 °FPartly sunny.7 mph78%29.92 "HgN/A
9:50 AM72 °FPartly sunny.3 mph78%29.92 "HgN/A
9:20 AM72 °FPartly sunny.3 mph78%29.92 "HgN/A
8:50 AM70 °FPartly sunny.2 mph83%29.92 "HgN/A
8:20 AM70 °FPassing clouds.3 mph83%29.92 "HgN/A
7:50 AM70 °FPartly cloudy.6 mph83%29.92 "HgN/A
7:20 AM70 °FPartly cloudy.8 mph83%29.92 "HgN/A
6:50 AM70 °FPartly cloudy.10 mph88%29.92 "HgN/A
6:20 AM70 °FPartly cloudy.9 mph88%29.92 "HgN/A
5:50 AM70 °FPartly cloudy.13 mph88%29.92 "HgN/A
4:50 AM70 °FPartly cloudy.13 mph88%29.95 "HgN/A
4:20 AM70 °FPartly cloudy.10 mph83%29.95 "HgN/A
3:50 AM70 °FPartly cloudy.10 mph88%29.98 "HgN/A
3:20 AM70 °FPartly cloudy.8 mph83%29.98 "HgN/A
2:50 AM70 °FPartly cloudy.6 mph83%30.01 "HgN/A
2:20 AM70 °FPartly cloudy.6 mph83%30.01 "HgN/A
Weather by CustomWeather, © 2014

See weather overviewHow to use our weather pages